NOAA 16 DEB, 41127

Orbit data source: Space-Track

NOAA 16 DEB, 41127 is space debris in SSO originally from a launch on Thu, 21 Sep 2000 UTC launched from the Air Force Western Test Range (AFWTR). Debris objects in space refer to the collection of defunct objects orbiting the Earth. Examples of debris include non-operational satellites, rocket bodies, and fragments generated from explosions, collisions, or faulty payload assembly.

Loading next visibility...
Identifier
41127, 2000-055BJ
Orbit
SSO
Last TLE update
14 hours ago
Origin
Manufacturer
Unknown
Mission
Spacecraft
Bus & Motor
Unknown
Mass
Unknown
Launch date (UTC)
2000-09-21 (25 years ago)
Launch vehicle
Unknown
Launch site
Air Force Western Test Range (AFWTR)
Object type
Payload
Rocket body
Debris
Shape & HBR
Unknown
Radar Cross Section
Small (<0.1 m²)

Expand to show TLE details & history

TLE from 14 hours ago
0 NOAA 16 DEB
1 41127U 00055BJ  25186.13497057  .00038665  00000-0  31796-2 0  9999
2 41127  98.8449  65.5961 0030013 122.5357 237.8768 14.98660171504219
Epoch: 2025-07-05T03:14Z
TLE epoch observation values (Epoch: 2025-07-05T03:14:21.457Z)
Latitude
Longitude
93.62933°
Altitude
585.189 km
Speed
7.562 km/s
True Right ascension
04h 22m 23s
True Declination
0° 00' 00"
Sunlit
Object was in daylight at epoch
Visualization orbit readout
Latitude
5.99979°
Longitude
93.37947°
Altitude
581.902 km
Speed
7.565 km/s
Apparent Right ascension
02h 02m 43s
Apparent Declination
-50° 18' 31"
Sunlit
Object is in daylight
Visualization observer readout
Local Sidereal Time
05:36:39
Azimuth
211.609° SW
Elevation
-11.67°
Doppler factor
1
Orbital elements
Apogee altitude
588.944 km
Perigee altitude
547.248 km
Semi-major axis
6,946.233 km
Eccentricity
0.003
Inclination
98.8449°
RAAN
65.5961°
Arg. of periapsis
122.5357°
True anomaly
Unknown
Mean anomaly
237.8768°
Eccentric anomaly
Unknown
Mean motion
3.74903 °/min
Orbital period
96.02 mins
BSTAR
0.0031796
Loading maneuver chart data...
Loading SW <> Apogee altitude chart data...
Loading historical data...
Loading historical data...
Loading historical data...
Loading historical data...
Loading historical data...
Loading historical data...
Loading historical data...

NOAA 16 DEB Visibility forecast

Observer location: undefined°, undefined°

Span
Click to sort rows by Start time (UTC) header in descending order
Start Az.
Max El. time (UTC)
Max El. Az.
Max El.
End time (UTC)
End Az.
4 mins2025-07-06 03:52:15.347Z63.971° ENE2025-07-06 03:54:15.347Z96.274° ESE14.022°2025-07-06 03:56:15.347Z127.459° SE
5 mins2025-07-06 05:27:15.347Z343.885° N2025-07-06 05:29:15.347Z290.769° WNW31.691°2025-07-06 05:32:15.347Z225.118° WSW
6 mins2025-07-06 16:13:15.347Z182.514° SSW2025-07-06 16:16:15.347Z263.122° W39.977°2025-07-06 16:19:15.347Z334.425° NNW
|